GW5518 Weather Reports


Display with metric or nautical units.
time (UTC)temp
F
wind
direction
speed
MPH
gust
MPH
rain 1hr
in
rain 24hr
in
rain mn
in
humidity
%
barometer
mb
20260906204528 87 156 10.0 17.0 0.00 0.00 0.00 38 1016.7
20260906203027 87 189 6.0 18.0 0.00 0.00 0.00 38 1016.9
20260906201528 88 130 9.0 16.0 0.00 0.00 0.00 37 1017.0
20260906200027 87 139 10.0 16.0 0.00 0.00 0.00 39 1017.1
20260906194529 87 140 7.0 18.0 0.00 0.00 0.00 39 1017.2
20260906193027 86 198 6.0 17.0 0.00 0.00 0.00 38 1017.4
20260906191528 87 205 10.0 15.0 0.00 0.00 0.00 40 1017.6
20260906190027 86 151 10.0 15.0 0.00 0.00 0.00 40 1017.6
20260906184535 85 203 10.0 22.0 0.00 0.00 0.00 41 1017.7
20260906183030 84 182 8.0 17.0 0.00 0.00 0.00 42 1017.9
20260906181531 85 215 10.0 17.0 0.00 0.00 0.00 41 1018.0
20260906180027 83 224 9.0 14.0 0.00 0.00 0.00 44 1018.2
20260906174531 83 198 12.0 16.0 0.00 0.00 0.00 43 1018.5
20260906173030 83 164 10.0 16.0 0.00 0.00 0.00 44 1018.6
20260906171531 82 202 9.0 15.0 0.00 0.00 0.00 44 1019.1
20260906170058 81 194 10.0 16.0 0.00 0.00 0.00 45 1019.2
20260906164533 80 202 10.0 17.0 0.00 0.00 0.00 46 1019.5
20260906163031 79 226 8.0 15.0 0.00 0.00 0.00 48 1019.5
20260906161533 78 188 11.0 16.0 0.00 0.00 0.00 48 1019.4
20260906160030 77 208 12.0 17.0 0.00 0.00 0.00 50 1019.4
20260906154535 75 206 10.0 16.0 0.00 0.00 0.00 53 1019.3
20260906153039 75 180 10.0 17.0 0.00 0.00 0.00 54 1019.3
20260906151533 74 171 9.0 17.0 0.00 0.00 0.00 55 1019.3
20260906150032 72 207 10.0 18.0 0.00 0.00 0.00 59 1019.5
20260906144537 70 174 12.0 21.0 0.00 0.00 0.00 61 1019.5
20260906143036 69 199 13.0 23.0 0.00 0.00 0.00 63 1019.6
20260906141537 67 188 14.0 18.0 0.00 0.00 0.00 65 1019.5
20260906140037 67 191 11.0 19.0 0.00 0.00 0.00 66 1019.4
20260906134530 66 202 12.0 18.0 0.00 0.00 0.00 67 1019.4
20260906133030 65 192 12.0 19.0 0.00 0.00 0.00 67 1019.6
20260906131531 65 188 12.0 20.0 0.00 0.00 0.00 68 1019.6
20260906130033 64 188 9.0 14.0 0.00 0.00 0.00 70 1019.6
20260906124541 63 188 12.0 16.0 0.00 0.00 0.00 72 1019.5
20260906123104 62 211 12.0 17.0 0.00 0.00 0.00 72 1019.5
20260906121530 63 198 9.0 15.0 0.00 0.00 0.00 70 1019.3
20260906120031 64 196 11.0 18.0 0.00 0.00 0.00 68 1019.3
20260906114534 64 180 12.0 19.0 0.00 0.00 0.00 68 1019.1
20260906113037 64 175 11.0 18.0 0.00 0.00 0.00 69 1019.1
20260906111532 63 190 14.0 19.0 0.00 0.00 0.00 71 1019.2
20260906110035 63 189 13.0 18.0 0.00 0.00 0.00 71 1019.2
20260906104535 63 189 14.0 19.0 0.00 0.00 0.00 73 1019.1
20260906103034 63 200 14.0 21.0 0.00 0.00 0.00 73 1019.2
20260906101531 63 208 11.0 15.0 0.00 0.00 0.00 72 1019.1
20260906100032 63 205 11.0 15.0 0.00 0.00 0.00 72 1018.9
20260906094535 63 193 6.0 10.0 0.00 0.00 0.00 73 1019.1
20260906093030 62 194 6.0 8.0 0.00 0.00 0.00 75 1018.9
20260906091538 63 189 6.0 10.0 0.00 0.00 0.00 69 1019.1
20260906090033 65 179 6.0 12.0 0.00 0.00 0.00 66 1019.0
20260906084535 66 179 9.0 13.0 0.00 0.00 0.00 64 1018.7
20260906083036 66 161 10.0 17.0 0.00 0.00 0.00 66 1018.4
20260906081536 66 161 13.0 19.0 0.00 0.00 0.00 68 1018.5
20260906080033 66 184 14.0 19.0 0.00 0.00 0.00 69 1018.6
20260906074538 67 183 14.0 21.0 0.00 0.00 0.00 1018.7
20260906073036 67 188 16.0 25.0 0.00 0.00 0.00 70 1018.7
20260906071532 67 168 13.0 20.0 0.00 0.00 0.00 69 1018.7
20260906070032 67 155 11.0 17.0 0.00 0.00 0.00 69 1018.8
20260906064536 68 172 13.0 21.0 0.00 0.00 0.00 69 1018.8
20260906063013 68 140 14.0 20.0 0.00 0.00 0.00 72 1018.9
20260906061510 68 165 13.0 18.0 0.00 0.00 0.00 72 1019.2
20260906060012 68 183 12.0 17.0 0.00 0.00 0.00 71 1019.2
20260906054510 69 163 12.0 20.0 0.00 0.00 0.00 69 1019.2
20260906053022 69 159 13.0 19.0 0.00 0.00 0.00 68 1018.8
20260906051509 69 156 11.0 16.0 0.00 0.00 0.00 67 1018.5
20260906050012 69 146 9.0 15.0 0.00 0.00 0.00 66 1018.5
20260906044510 69 135 11.0 16.0 0.00 0.00 0.00 66 1018.8
20260906043023 69 105 11.0 16.0 0.00 0.00 0.00 66 1018.9
20260906041513 69 132 9.0 14.0 0.00 0.00 0.00 67 1018.8
20260906040013 69 138 12.0 16.0 0.00 0.00 0.00 67 1018.8
20260906034512 69 128 12.0 17.0 0.00 0.00 0.00 68 1018.9
20260906033019 69 128 11.0 19.0 0.00 0.00 0.00 69 1018.8
20260906031515 69 123 12.0 19.0 0.00 0.00 0.00 70 1018.7
20260906030019 70 124 10.0 19.0 0.00 0.00 0.00 73 1018.5
20260906024514 71 144 16.0 25.0 0.00 0.00 0.00 71 1019.1
20260906023012 74 150 17.0 27.0 0.00 0.00 0.00 61 1018.9
20260906021514 74 159 10.0 18.0 0.00 0.00 0.00 57 1018.5
20260906020014 74 161 11.0 16.0 0.00 0.00 0.00 56 1018.2
20260906014514 72 166 7.0 12.0 0.00 0.00 0.00 61 1017.9
20260906013023 71 193 5.0 7.0 0.00 0.00 0.00 65 1017.9
20260906011515 73 198 5.0 12.0 0.00 0.00 0.00 60 1017.7
20260906010017 75 173 7.0 14.0 0.00 0.00 0.00 57 1017.8
20260906004520 76 188 7.0 15.0 0.00 0.00 0.00 53 1017.9
20260906003017 77 135 15.0 20.0 0.00 0.00 0.00 54 1018.0
20260906001518 78 119 13.0 21.0 0.00 0.00 0.00 54 1017.8
20260906000034 80 111 17.0 24.0 0.00 0.00 0.00 54 1017.5
20260905234514 83 115 12.0 22.0 0.00 0.00 0.00 51 1017.6
20260905233017 83 123 11.0 17.0 0.00 0.00 0.00 41 1017.9
20260905231518 82 103 11.0 19.0 0.00 0.00 0.00 48 1017.8
20260905230018 81 105 10.0 17.0 0.00 0.00 0.00 49 1017.7
20260905224517 79 98 11.0 19.0 0.00 0.00 0.00 53 1017.5
20260905223035 81 69 8.0 17.0 0.00 0.00 0.00 49 1017.7
20260905221534 88 51 10.0 17.0 0.00 0.00 0.00 25 1017.5
20260905220036 90 44 10.0 16.0 0.00 0.00 0.00 23 1017.6
20260905214536 91 9 6.0 12.0 0.00 0.00 0.00 22 1017.4
20260905213034 89 9 4.0 13.0 0.00 0.00 0.00 23 1017.1
20260905211546 90 34 6.0 13.0 0.00 0.00 0.00 22 1016.8
20260905210033 92 17 8.0 15.0 0.00 0.00 0.00 21 1017.2